Regional Weather Roundup
Issued by NWS Sioux Falls, SD

Home | Current Version | Previous Version | Graphics & Text | Print | Product List | Glossary Off
Versions: 1 2 3 4 5 6 7 8 9 10 11 12 13 14 15 16 17 18 19 20 21 22 23 24 25 26 27 28 29 30 31 32 33 34 35 36 37 38 39 40 41 42 43 44 45 46 47 48 49 50

686
ASUS43 KFSD 140502
RWRFSD

WEATHER ROUNDUP FOR SE SOUTH DAKOTA/SW MINNESOTA/NW IOWA
NATIONAL WEATHER SERVICE SIOUX FALLS SD
1100 PM CST SAT FEB 13 2016

NOTE: "FAIR" INDICATES FEW OR NO CLOUDS BELOW 12,000 FEET WITH NO
SIGNIFICANT WEATHER AND OR OBSTRUCTIONS TO VISIBILITY.


SDZ038>040-050-052>070-140600-
SOUTHEAST SOUTH DAKOTA

CITY           SKY/WX    TMP DP  RH WIND       PRES   REMARKS
BROOKINGS      FLURRIES  11   7  84 S20       30.06S WCI  -7
CHAMBERLAIN    NOT AVBL
HURON          FLURRIES  14   8  77 SE20G26   30.00F WCI  -3
MADISON        CLOUDY    10  10 100 S21       30.04R FOG     WCI  -9
MITCHELL       MIX PCPN  16   9  74 SE20      30.02R WCI  -1
SIOUX FALLS    LGT SNOW  13   7  77 S18G28    30.08F WCI  -4
WINNER         CLOUDY    30  22  72 S15       29.82F WCI  19
YANKTON        CLOUDY    16   7  67 SE21G26   30.06S WCI  -2
$$

MNZ071-072-080-081-089-090-097-098-140600-
SOUTHWEST MINNESOTA

CITY           SKY/WX    TMP DP  RH WIND       PRES   REMARKS
FAIRMONT       CLOUDY    10   1  67 SE17      30.22F WCI  -7
JACKSON        LGT SNOW  12   5  73 SE16G22   30.18F WCI  -4
LUVERNE        CLOUDY    14  10  85 SE17G23   30.11F FOG     WCI  -3
MARSHALL       FLURRIES  11   5  77 S17       30.15F WCI  -6
MONTEVIDEO     FLURRIES  10   3  72 S13G21    30.19F WCI  -5
PIPESTONE      LGT SNOW  12   3  67 SE22G29   30.06F WCI  -7
REDWOOD FALLS  CLOUDY    11   4  73 SE18      30.22F WCI  -7
TRACY          CLOUDY    12   7  82 S17G25    30.14F WCI  -6
WINDOM         FLURRIES  10   5  79 SE17      30.17F WCI  -7
WORTHINGTON    CLOUDY     9   3  78 SE20G26   30.13F WCI -11
$$

IAZ001>003-012>014-020>022-031-032-NEZ013-014-SDZ071-140600-
NORTHWEST IOWA

CITY           SKY/WX    TMP DP  RH WIND       PRES   REMARKS
ESTHERVILLE    LGT SNOW  10   6  84 SE23      30.20F FOG     WCI -10
SIOUX CITY     CLOUDY    18   8  65 SE14      30.13F WCI   4
SPENCER        LGT SNOW  11   6  81 SE21      30.18F WCI  -8
STORM LAKE     CLOUDY    10  10 100 SE20      30.17F WCI  -8
$$

ABBREVIATIONS USED IN REMARKS
   TC - TEMPERATURE IN CELSIUS
  WCI - WIND CHILL INDEX
   HX - HEAT INDEX
  VSB - VISIBILITY





USA.gov is the U.S. government's official web portal to all federal, state and local government web resources and services.